Wind_Speed
6 4 7 11 12 13 11 14 16 16 13 15 13 16 10 10 9 10 9 6 8 9 6 12 11 14 16 16 20 22 24 24 22 25 27 22 33 28 25 16 50 29 27 23
8 10 9 7 8 10 10 15 17 15 12 13 12 17 12 12 15 6 6 9 9 7 7 9 12 14 15 18 19 21 22 24 24 23 26 26 29 28 25 28 27 31 30 28
9 11 14 10 7 12 13 14 16 18 16 15 13 22 15 8 9 8 8 9 8 7 5 6 8 13 15 19 22 23 25 25 23 24 25 27 23 24 24 26 32 28 29 29
9 9 5 9 13 12 18 10 15 15 13 14 6 19 17 14 10 8 9 8 8 7 6 7 8 12 14 16 19 23 27 25 23 24 23 22 20 19 28 29 29 25 14 22
9 16 16 16 15 13 18 12 13 12 14 16 20 12 15 10 14 16 12 9 8 8 7 7 8 16 19 20 19 23 24 28 27 29 22 21 19 23 26 25 30 23 30 34
18 15 15 11 12 8 14 12 12 12 12 15 18 17 17 10 7 12 14 9 8 6 7 7 13 16 18 21 20 22 25 27 29 29 25 21 19 21 23 23 26 17 25 29
16 12 18 13 7 9 11 11 8 7 7 13 11 13 4 10 13 13 11 8 6 6 6 6 8 12 18 21 23 22 23 27 28 27 32 23 19 14 19 22 18 25 24 8
9 12 6 12 9 6 10 7 6 15 16 19 14 9 5 11 10 9 8 7 7 7 7 7 8 14 19 23 24 24 21 25 26 25 28 22 16 15 16 16 15 5 23 14
6 9 22 18 7 5 6 10 13 11 15 12 9 14 9 10 8 4 5 7 7 7 7 7 8 14 17 22 26 25 23 23 26 26 23 19 12 13 12 16 14 21 22 13
6 20 9 15 14 7 8 8 7 4 5 6 5 10 3 6 8 9 7 8 8 7 8 8 7 13 16 20 23 27 22 20 23 23 19 16 14 12 10 2 16 14 18 15
11 5 11 13 9 16 8 8 8 7 5 5 5 1 8 7 3 3 4 7 7 7 7 8 13 21 22 20 23 26 23 18 21 25 23 16 10 11 7 8 17 21 22 19
8 5 4 14 19 10 5 8 8 2 4 2 4 3 6 7 6 6 6 6 7 9 8 9 14 20 23 24 21 24 22 20 20 22 24 15 4 5 7 4 10 19 27 26
7 3 9 8 9 6 4 7 9 3 1 11 6 5 3 12 11 7 7 8 7 9 12 13 12 15 15 22 20 22 21 22 19 20 22 12 14 6 9 12 14 17 24 29
4 4 10 12 16 13 7 7 5 4 4 5 10 13 12 6 7 6 7 7 8 8 9 11 12 12 15 16 19 19 22 21 20 18 23 14 4 1 7 7 11 14 19 21
2 6 11 17 20 20 19 15 14 13 14 10 15 15 11 9 9 5 7 7 8 9 10 12 13 9 12 14 17 19 21 25 24 22 21 22 2 2 9 6 9 12 15 16
4 6 11 18 17 19 18 14 16 16 13 14 15 17 13 11 4 6 7 5 7 7 6 8 11 13 13 16 19 22 24 24 25 24 19 18 1 4 7 10 11 14 18 19
4 3 3 9 11 7 7 12 13 15 11 12 11 10 7 3 6 7 6 7 6 6 4 5 7 10 14 18 12 18 25 24 25 24 17 12 4 6 9 11 16 20 20 20
8 7 3 4 7 4 9 2 3 6 8 8 7 4 4 3 6 7 3 7 7 7 5 6 5 13 12 19 23 25 23 27 23 23 17 10 8 12 14 20 22 19 20 21
9 6 2 2 5 10 14 6 2 3 8 10 7 3 3 5 6 3 9 14 6 6 3 5 11 13 16 20 20 25 24 25 24 21 17 10 12 16 19 20 23 22 23 21
7 5 2 3 3 4 3 7 4 2 4 6 8 2 5 5 4 1 6 6 7 8 6 4 5 10 14 17 20 22 21 22 23 19 21 12 16 18 19 21 23 22 24 25
2 0 8 7 4 6 3 7 1 2 1 4 2 2 4 3 3 6 8 7 11 14 12 7 3 8 14 18 21 20 22 20 22 23 23 15 19 22 23 23 23 25 26 28
8 6 3 4 3 8 4 5 3 2 5 3 3 4 5 7 8 8 9 11 9 9 12 10 9 10 16 17 22 21 23 24 22 25 24 11 25 27 28 29 28 30 32 31
3 5 4 5 5 6 3 4 4 4 3 6 1 6 6 7 7 8 10 9 8 11 13 12 13 15 18 20 23 23 24 22 21 22 21 13 27 29 31 32 28 27 29 28
2 7 4 4 11 12 7 7 6 2 2 5 4 4 5 6 7 8 7 8 6 13 10 9 13 15 22 28 28 27 24 22 18 21 19 19 26 26 28 27 27 27 26 27
8 3 6 9 13 15 6 8 7 2 5 5 2 4 5 6 6 6 7 7 8 13 13 12 15 20 28 33 31 29 25 24 20 20 13 24 28 25 26 23 24 24 24 33
8 9 6 5 9 7 5 7 6 5 1 2 3 4 6 6 6 6 6 12 13 12 15 15 19 26 33 35 36 36 25 24 22 15 20 25 25 24 27 27 25 21 27 28
Wind_Direction
215 262 270 294 310 312 312 298 289 287 289 288 276 278 286 287 266 256 227 242 78 62 56 63 32 12 7 7 7 354 339 331 321 308 292 252 230 232 234 238 221 200 191 190
269 243 265 339 324 301 286 284 281 283 284 288 299 284 270 264 253 257 119 98 89 63 31 39 24 19 4 7 5 351 346 330 318 313 297 289 239 237 234 223 220 206 188 185
270 278 306 266 274 285 269 279 290 289 303 281 286 274 270 267 82 103 87 95 91 84 50 45 34 23 10 6 355 347 342 339 322 311 309 286 293 235 242 238 225 210 194 184
282 276 300 290 278 273 279 280 295 303 305 285 308 289 284 279 163 161 132 110 92 74 43 40 25 14 10 12 357 338 338 340 337 329 324 285 273 237 236 236 235 222 249 199
249 300 302 299 279 285 290 330 311 307 292 294 281 274 281 284 284 170 124 102 81 53 39 23 16 8 7 359 355 350 343 338 343 343 334 326 274 251 241 238 232 223 207 204
274 269 277 262 284 315 314 303 294 282 272 267 277 267 278 292 310 110 107 94 69 34 34 9 7 7 354 350 345 351 347 339 339 343 336 334 336 246 237 237 234 224 231 195
300 310 300 341 335 297 276 279 282 276 255 266 295 300 36 58 42 76 82 66 57 35 20 351 358 354 345 344 341 344 346 335 335 336 347 331 328 307 249 250 241 204 215 275
305 317 39 10 341 326 309 286 276 289 287 285 291 270 292 102 86 84 56 34 18 11 5 354 345 342 340 334 335 333 340 333 329 333 344 331 323 303 276 259 263 186 102 123
324 275 336 326 352 341 327 291 300 300 285 288 267 273 118 117 93 40 20 26 15 356 354 338 338 342 331 325 325 326 327 331 328 326 332 342 326 319 274 267 238 155 138 345
294 293 298 307 300 255 226 284 310 284 290 270 275 281 46 73 42 354 0 11 354 343 344 346 337 331 325 321 321 321 318 321 321 328 324 352 321 301 290 185 145 155 164 195
332 296 308 317 292 303 312 278 262 290 282 256 292 251 131 101 248 281 340 355 338 353 345 349 349 340 328 319 317 316 311 314 326 329 328 348 320 277 250 214 163 175 160 156
313 306 286 293 285 306 7 310 310 253 281 336 290 284 139 89 39 359 8 351 359 358 12 354 338 325 320 315 314 311 317 316 326 330 328 328 5 182 199 177 174 190 163 161
347 293 306 293 281 63 339 313 323 111 224 244 268 241 213 12 337 1 345 346 11 359 3 342 328 316 306 307 313 308 318 314 325 335 336 333 318 204 135 130 132 154 160 161
328 249 259 273 279 294 274 267 277 262 273 278 254 287 308 218 302 351 332 356 8 346 4 342 324 313 329 320 322 327 319 320 331 332 337 339 281 290 103 130 118 142 152 159
292 260 277 281 285 282 275 260 243 244 242 252 278 283 293 307 302 337 325 17 357 341 10 339 331 335 336 334 333 329 340 350 344 337 342 335 243 314 135 136 141 147 152 162
205 260 290 286 287 274 280 270 267 257 261 234 252 267 274 288 20 335 316 17 351 337 20 334 339 355 357 356 356 347 340 338 339 326 328 334 64 152 126 138 151 154 140 133
241 246 269 273 289 321 289 258 264 250 252 262 261 262 302 23 336 301 326 359 312 322 333 340 356 338 341 327 352 353 340 333 330 323 315 315 260 177 176 160 154 140 136 133
233 249 234 281 294 254 245 134 352 330 305 295 304 294 297 348 292 290 11 320 323 325 343 348 342 309 324 12 3 348 341 329 325 321 306 284 223 175 155 147 151 146 139 143
221 239 249 261 260 291 290 195 212 352 297 287 274 252 10 303 331 47 35 273 307 296 10 336 335 350 22 6 354 343 330 321 317 318 304 264 204 172 154 140 134 137 140 142
214 241 203 194 247 265 102 77 54 352 265 30 85 61 267 351 310 135 263 315 311 324 320 323 324 358 10 350 338 329 323 320 311 312 309 268 183 157 140 139 138 143 142 130
169 200 230 238 266 269 345 114 164 359 310 70 15 326 354 347 317 325 309 321 313 305 310 299 57 20 348 334 331 324 308 309 304 308 300 277 181 160 151 147 145 142 133 128
176 178 185 206 242 251 173 91 206 94 348 322 275 310 19 359 336 319 333 317 303 302 324 50 32 341 329 325 321 310 304 301 304 307 301 236 155 151 149 144 135 130 126 117
165 198 170 207 219 285 189 220 186 359 9 312 302 23 360 321 318 333 316 308 312 342 2 20 359 319 305 316 303 299 291 292 296 289 279 169 150 147 147 139 131 124 125 120
242 201 231 245 258 266 254 263 265 158 264 302 341 13 317 313 328 324 332 321 347 349 1 356 329 304 309 307 301 295 282 276 269 265 272 156 142 137 139 137 134 130 129 126
278 212 242 258 273 284 275 247 237 72 25 308 332 283 300 337 332 331 333 341 339 337 342 336 318 310 303 306 303 296 280 267 239 236 203 143 138 134 131 133 135 134 138 140
260 260 208 246 246 279 222 44 90 78 312 126 275 329 356 342 355 335 338 341 344 338 347 328 321 309 312 315 310 302 265 221 215 192 147 134 131 132 125 117 103 122 137 136
Height
764 778 780 766 762 759 763 768 769 757 746 749 747 741 737 733 732 732 731 733 738 742 743 747 752 752 751 750 748 745 742 736 731 728 726 724 722 725 731 726 726 736 739 743
771 779 762 761 762 765 767 773 769 752 743 745 744 740 733 728 722 724 729 735 740 744 747 750 751 752 753 749 748 745 742 739 732 727 724 722 719 719 725 732 734 733 731 733
775 763 751 758 767 769 765 768 762 759 748 742 746 739 734 722 725 726 729 735 743 749 751 753 753 752 753 751 748 744 741 738 732 727 721 717 716 717 720 724 729 726 713 732
770 755 763 766 765 764 767 753 751 753 762 768 749 757 740 728 735 736 738 742 749 753 756 755 754 753 752 750 748 744 740 736 731 725 719 716 715 713 714 716 717 716 719 722
768 764 765 768 761 756 762 753 757 759 765 766 756 766 738 728 725 734 740 748 753 757 759 758 756 753 750 750 748 744 739 735 730 724 718 714 713 710 711 712 712 716 725 728
767 758 760 760 755 760 760 763 762 762 767 775 756 757 743 734 726 734 743 753 757 761 760 760 756 753 752 750 748 744 738 735 729 724 717 714 710 708 709 709 712 723 729 723
767 768 759 760 768 763 765 772 785 779 776 767 740 745 748 747 746 746 751 758 761 762 760 761 755 752 751 749 747 743 738 735 729 724 717 711 708 707 708 707 710 718 727 734
781 780 772 774 780 783 783 783 794 792 785 771 751 758 742 752 754 758 762 763 763 763 761 760 757 754 751 750 746 743 738 735 729 724 719 712 707 707 708 707 709 718 729 735
798 784 772 776 781 785 782 790 774 779 770 774 762 746 752 757 763 767 765 765 767 766 762 760 757 754 753 750 746 742 737 734 729 724 718 712 709 707 706 705 706 713 715 719
794 795 787 781 777 779 786 775 789 783 787 782 759 748 767 772 788 773 771 769 770 767 763 759 756 754 752 749 743 740 737 732 729 725 721 714 710 709 709 707 708 714 717 716
800 801 794 790 785 781 784 783 778 779 783 786 783 767 773 785 787 780 772 770 769 762 760 758 756 754 750 746 742 739 735 731 728 726 721 715 711 713 710 710 708 718 718 721
804 805 813 797 783 779 785 788 788 803 795 794 793 780 759 767 771 770 769 767 765 764 762 761 760 756 751 745 740 737 733 729 728 727 722 719 712 715 713 708 707 715 712 716
812 808 812 796 787 790 796 791 791 797 808 804 801 778 765 771 773 770 769 766 765 763 763 763 760 755 749 743 740 736 733 728 726 728 722 716 713 715 714 711 713 717 719 722
819 819 821 821 807 801 811 803 799 800 807 803 788 782 771 781 772 770 769 767 767 765 764 763 759 752 746 743 739 736 732 728 725 726 721 718 712 713 712 715 717 719 721 726
820 825 813 804 794 789 786 788 798 804 801 806 792 787 778 773 772 769 768 766 766 765 764 763 758 752 747 745 742 738 733 730 726 725 724 719 715 711 716 719 722 724 726 731
821 819 811 806 793 784 778 777 776 777 778 786 783 781 771 768 766 769 767 766 766 765 765 763 759 756 752 749 745 741 737 733 730 726 723 720 718 717 718 720 724 725 729 732
822 820 813 808 784 784 794 774 771 769 768 770 777 768 765 767 768 768 766 766 766 764 761 759 758 756 754 749 744 742 740 736 731 728 724 720 719 719 721 724 726 727 731 734
811 816 814 807 796 814 777 765 767 769 765 764 761 760 763 765 766 765 764 768 765 762 759 759 758 755 752 751 746 743 740 737 733 729 724 721 721 722 723 723 727 731 734 738
803 812 812 813 799 786 771 767 768 770 772 762 761 762 763 765 765 770 773 770 763 760 758 757 757 755 753 751 749 744 739 736 733 729 725 721 721 721 723 726 727 731 736 742
800 811 815 813 816 794 770 766 766 768 781 756 764 764 766 767 780 771 767 763 760 756 755 753 753 753 752 751 750 746 741 736 732 727 723 721 719 721 722 726 729 734 738 743
815 817 816 814 806 787 761 767 768 785 784 763 763 764 765 772 773 767 763 760 757 754 751 749 749 751 750 748 748 745 739 736 732 727 723 718 718 722 725 728 734 737 742 746
807 817 813 811 808 802 763 772 776 772 765 765 765 765 768 770 768 766 763 760 755 752 749 748 749 749 748 746 746 741 737 733 730 724 717 716 716 722 726 731 737 740 744 749
798 796 798 798 788 769 764 764 765 766 767 768 765 768 770 770 768 765 762 758 753 751 749 748 748 747 745 743 741 736 732 730 728 722 720 714 716 720 726 733 739 743 748 753
775 780 785 783 773 766 765 763 762 762 766 767 766 768 770 770 767 764 761 758 755 752 750 748 747 744 739 736 731 726 723 722 722 720 717 714 718 722 729 736 740 745 751 757
784 778 776 777 770 766 763 762 760 761 764 766 766 769 768 767 766 764 761 758 755 753 750 747 744 740 732 725 717 713 711 709 715 715 713 713 718 724 731 738 743 748 754 755
778 774 778 778 764 763 758 758 758 763 765 766 768 768 768 767 766 764 762 759 756 752 749 746 742 735 725 714 703 694 692 698 701 706 710 714 719 727 733 739 747 753 757 763